AFR607 SOCA-TFFF

Flight info

Callsign AFR607
Flight time 1h 59m
Altitude 38000
Route SILAT1A SILAT UA247 BUXEX UA555 BGI DCT BORUS BORUS2X
Aircraft A320/M-SDE2E3FGIJ1RWY/HB1

Departure

Time 2026-04-26 18:29
Airport Cayenne – Félix Eboué Airport (SOCA)

Arrival

Time 2026-04-26 20:28
Airport Martinique Aimé Césaire International Airport (TFFF)
Time Latitude Longitude Altitude Speed Heading
2026-04-26 18:14 4.82153 -52.36367 29 ft 0 kts 335°
2026-04-26 18:17 4.82148 -52.36365 29 ft 2 kts 335°
2026-04-26 18:17 4.82130 -52.36356 29 ft 3 kts 335°
2026-04-26 18:17 4.82112 -52.36348 29 ft 3 kts 336°
2026-04-26 18:17 4.82093 -52.36342 29 ft 3 kts 360°
2026-04-26 18:18 4.82075 -52.36345 29 ft 3 kts 36°
2026-04-26 18:18 4.82064 -52.36356 29 ft 1 kts 65°
2026-04-26 18:18 4.82064 -52.36357 29 ft 0 kts 66°
2026-04-26 18:24 4.82074 -52.36333 29 ft 6 kts 65°
2026-04-26 18:24 4.82094 -52.36286 29 ft 8 kts 78°
2026-04-26 18:25 4.82058 -52.36250 29 ft 8 kts 163°
2026-04-26 18:25 4.82012 -52.36232 29 ft 9 kts 156°
2026-04-26 18:25 4.81941 -52.36252 29 ft 12 kts 234°
2026-04-26 18:25 4.81903 -52.36332 29 ft 13 kts 244°
2026-04-26 18:26 4.81866 -52.36411 29 ft 13 kts 245°
2026-04-26 18:26 4.81821 -52.36511 28 ft 16 kts 246°
2026-04-26 18:26 4.81774 -52.36613 28 ft 20 kts 245°
2026-04-26 18:26 4.81718 -52.36735 28 ft 20 kts 245°
2026-04-26 18:27 4.81661 -52.36858 28 ft 19 kts 245°
2026-04-26 18:27 4.81605 -52.36979 28 ft 19 kts 245°
2026-04-26 18:27 4.81554 -52.37100 28 ft 18 kts 255°
2026-04-26 18:27 4.81542 -52.37124 28 ft 2 kts 128°
2026-04-26 18:28 4.81549 -52.37104 28 ft 6 kts 68°
2026-04-26 18:28 4.81614 -52.36959 28 ft 55 kts 65°
2026-04-26 18:28 4.81862 -52.36402 29 ft 118 kts 66°
2026-04-26 18:28 4.82260 -52.35523 226 ft 145 kts 66°
2026-04-26 18:29 4.82672 -52.34610 863 ft 144 kts 69°
2026-04-26 18:29 4.82973 -52.33641 1529 ft 147 kts 75°
2026-04-26 18:29 4.83232 -52.32655 2185 ft 147 kts 75°
2026-04-26 18:29 4.83495 -52.31660 2764 ft 148 kts 74°
2026-04-26 18:30 4.83754 -52.30671 3236 ft 151 kts 75°
2026-04-26 18:30 4.84037 -52.29584 3490 ft 172 kts 75°
2026-04-26 18:30 4.84358 -52.28342 3749 ft 195 kts 75°
2026-04-26 18:30 4.84718 -52.26949 4055 ft 215 kts 76°
2026-04-26 18:31 4.85111 -52.25423 4447 ft 234 kts 76°
2026-04-26 18:31 4.85524 -52.23824 5114 ft 240 kts 76°
2026-04-26 18:31 4.85946 -52.22196 5839 ft 243 kts 76°
2026-04-26 18:31 4.86530 -52.20599 6540 ft 248 kts 58°
2026-04-26 18:32 4.87776 -52.19398 7206 ft 255 kts 31°
2026-04-26 18:32 4.89464 -52.18891 7858 ft 264 kts
2026-04-26 18:32 4.91306 -52.19231 8405 ft 280 kts 339°
2026-04-26 18:32 4.93111 -52.20039 9117 ft 286 kts 338°
2026-04-26 18:33 4.94941 -52.20861 9856 ft 290 kts 339°
2026-04-26 18:33 4.96798 -52.21687 10537 ft 293 kts 339°
2026-04-26 18:33 4.98674 -52.22518 11225 ft 296 kts 339°
2026-04-26 18:33 5.00569 -52.23357 11916 ft 299 kts 339°
2026-04-26 18:34 5.02482 -52.24204 12602 ft 302 kts 339°
2026-04-26 18:34 5.04386 -52.25049 13273 ft 305 kts 338°
2026-04-26 18:34 5.06337 -52.25911 13922 ft 308 kts 339°
2026-04-26 18:34 5.08307 -52.26780 14511 ft 311 kts 339°
2026-04-26 18:35 5.10280 -52.27695 15090 ft 315 kts 333°
2026-04-26 18:35 5.12141 -52.28947 15353 ft 333 kts 326°
2026-04-26 18:35 5.14066 -52.30361 15479 ft 353 kts 325°
2026-04-26 18:35 5.16088 -52.31866 15635 ft 370 kts 325°
2026-04-26 18:36 5.18170 -52.33426 16055 ft 377 kts 325°
2026-04-26 18:36 5.20255 -52.34988 16567 ft 381 kts 325°
2026-04-26 18:36 5.22391 -52.36583 17097 ft 385 kts 325°
2026-04-26 18:36 5.24550 -52.38189 17625 ft 388 kts 326°
2026-04-26 18:37 5.26730 -52.39808 18154 ft 392 kts 326°
2026-04-26 18:37 5.28929 -52.41437 18602 ft 395 kts 326°
2026-04-26 18:37 5.31150 -52.43079 19051 ft 398 kts 326°
2026-04-26 18:37 5.33388 -52.44735 19507 ft 401 kts 326°
2026-04-26 18:38 5.35645 -52.46404 19961 ft 405 kts 326°
2026-04-26 18:38 5.37919 -52.48090 20417 ft 408 kts 326°
2026-04-26 18:38 5.40178 -52.49764 20860 ft 411 kts 326°
2026-04-26 18:38 5.42486 -52.51478 21306 ft 414 kts 326°
2026-04-26 18:39 5.44811 -52.53209 21752 ft 418 kts 324°
2026-04-26 18:39 5.46981 -52.55169 22192 ft 423 kts 314°
2026-04-26 18:39 5.48951 -52.57384 22640 ft 427 kts 313°
2026-04-26 18:39 5.50932 -52.59620 23076 ft 430 kts 313°
2026-04-26 18:40 5.52926 -52.61872 23498 ft 433 kts 313°
2026-04-26 18:40 5.54936 -52.64138 23845 ft 436 kts 313°
2026-04-26 18:40 5.56957 -52.66416 24205 ft 438 kts 313°
2026-04-26 18:40 5.58963 -52.68677 24565 ft 440 kts 313°
2026-04-26 18:41 5.61003 -52.70975 24916 ft 442 kts 313°
2026-04-26 18:41 5.63053 -52.73288 25273 ft 444 kts 313°
2026-04-26 18:41 5.65108 -52.75611 25622 ft 446 kts 313°
2026-04-26 18:41 5.67176 -52.77944 25968 ft 448 kts 313°
2026-04-26 18:42 5.69255 -52.80287 26308 ft 450 kts 313°
2026-04-26 18:42 5.71340 -52.82637 26643 ft 452 kts 313°
2026-04-26 18:42 5.73433 -52.85000 26959 ft 454 kts 313°
2026-04-26 18:42 5.75507 -52.87341 27272 ft 456 kts 313°
2026-04-26 18:43 5.77617 -52.89724 27587 ft 458 kts 313°
2026-04-26 18:43 5.79737 -52.92117 27893 ft 460 kts 313°
2026-04-26 18:43 5.81868 -52.94520 28201 ft 462 kts 313°
2026-04-26 18:43 5.84006 -52.96935 28503 ft 464 kts 313°
2026-04-26 18:44 5.86146 -52.99351 28801 ft 465 kts 313°
2026-04-26 18:44 5.88304 -53.01785 29085 ft 468 kts 313°
2026-04-26 18:44 5.90468 -53.04234 29354 ft 470 kts 313°
2026-04-26 18:44 5.92612 -53.06663 29631 ft 472 kts 313°
2026-04-26 18:45 5.94793 -53.09134 29899 ft 474 kts 313°
2026-04-26 18:45 5.96985 -53.11613 30141 ft 475 kts 313°
2026-04-26 18:45 5.99187 -53.14097 30372 ft 477 kts 313°
2026-04-26 18:45 6.01393 -53.16589 30604 ft 478 kts 313°
2026-04-26 18:46 6.03604 -53.19088 30838 ft 479 kts 313°
2026-04-26 18:46 6.05818 -53.21594 31061 ft 480 kts 313°
2026-04-26 18:46 6.08036 -53.24106 31277 ft 481 kts 313°
2026-04-26 18:46 6.10258 -53.26618 31556 ft 480 kts 313°
2026-04-26 18:47 6.12439 -53.29084 31873 ft 478 kts 313°
2026-04-26 18:47 6.14644 -53.31581 32199 ft 477 kts 313°
2026-04-26 18:47 6.16844 -53.34070 32518 ft 476 kts 313°
2026-04-26 18:47 6.19037 -53.36553 32846 ft 474 kts 313°
2026-04-26 18:48 6.21225 -53.39029 33151 ft 473 kts 313°
2026-04-26 18:48 6.23411 -53.41498 33468 ft 472 kts 313°
2026-04-26 18:48 6.25590 -53.43961 33788 ft 471 kts 313°
2026-04-26 18:48 6.27761 -53.46423 34078 ft 470 kts 312°
2026-04-26 18:49 6.29926 -53.48881 34348 ft 469 kts 312°
2026-04-26 18:49 6.32059 -53.51301 34616 ft 468 kts 313°
2026-04-26 18:49 6.34219 -53.53748 34869 ft 467 kts 313°
2026-04-26 18:49 6.36377 -53.56190 35105 ft 467 kts 313°
2026-04-26 18:50 6.38533 -53.58628 35347 ft 466 kts 313°
2026-04-26 18:50 6.40681 -53.61057 35591 ft 465 kts 313°
2026-04-26 18:50 6.42834 -53.63494 35817 ft 465 kts 313°
2026-04-26 18:50 6.44973 -53.65918 36046 ft 464 kts 313°
2026-04-26 18:51 6.47113 -53.68342 36279 ft 463 kts 313°
2026-04-26 18:51 6.49218 -53.70731 36505 ft 462 kts 313°
2026-04-26 18:51 6.51346 -53.73148 36724 ft 461 kts 313°
2026-04-26 18:51 6.53471 -53.75564 36925 ft 461 kts 313°
2026-04-26 18:52 6.55593 -53.77977 37111 ft 460 kts 313°
2026-04-26 18:52 6.57001 -53.79575 37238 ft 460 kts 313°
2026-04-26 18:52 6.59840 -53.82791 37488 ft 459 kts 313°
2026-04-26 18:52 6.61961 -53.85193 37681 ft 459 kts 313°
2026-04-26 18:53 6.64078 -53.87593 37867 ft 458 kts 313°
2026-04-26 18:53 6.66194 -53.89993 37940 ft 459 kts 313°
2026-04-26 18:53 6.70393 -53.94757 37945 ft 458 kts 313°
2026-04-26 18:54 6.74624 -53.99533 37945 ft 457 kts 316°
2026-04-26 18:54 6.79398 -54.03739 37946 ft 456 kts 321°
2026-04-26 18:55 6.84257 -54.07849 37942 ft 456 kts 321°
2026-04-26 18:55 6.89081 -54.11935 37946 ft 456 kts 321°
2026-04-26 18:56 6.93946 -54.16043 37951 ft 456 kts 321°
2026-04-26 18:56 6.98806 -54.20159 37953 ft 457 kts 321°
2026-04-26 18:57 7.02838 -54.23580 37964 ft 456 kts 321°
2026-04-26 18:57 7.08478 -54.28371 37952 ft 456 kts 321°
2026-04-26 18:58 7.13331 -54.32495 37956 ft 456 kts 321°
2026-04-26 18:58 7.18188 -54.36609 37962 ft 456 kts 321°
2026-04-26 18:59 7.23038 -54.40726 37948 ft 456 kts 321°
2026-04-26 18:59 7.27882 -54.44845 37951 ft 456 kts 321°
2026-04-26 19:00 7.32693 -54.48932 37949 ft 455 kts 321°
2026-04-26 19:00 7.37538 -54.53045 37948 ft 455 kts 321°
2026-04-26 19:01 7.42378 -54.57152 37950 ft 455 kts 321°
2026-04-26 19:01 7.47216 -54.61272 37950 ft 455 kts 321°
2026-04-26 19:02 7.52024 -54.65362 37947 ft 455 kts 321°
2026-04-26 19:02 7.56081 -54.68812 37952 ft 455 kts 321°
2026-04-26 19:03 7.61701 -54.73597 37959 ft 455 kts 321°
2026-04-26 19:03 7.66545 -54.77717 37950 ft 455 kts 321°
2026-04-26 19:04 7.71347 -54.81813 37957 ft 455 kts 321°
2026-04-26 19:04 7.76187 -54.85933 37945 ft 455 kts 321°
2026-04-26 19:05 7.83452 -54.92113 37954 ft 456 kts 321°
2026-04-26 19:06 7.88292 -54.96242 37948 ft 456 kts 321°
2026-04-26 19:06 7.93098 -55.00343 37951 ft 456 kts 321°
2026-04-26 19:07 7.97940 -55.04473 37955 ft 456 kts 321°
2026-04-26 19:07 8.02785 -55.08613 37969 ft 456 kts 321°
2026-04-26 19:08 8.07636 -55.12738 37957 ft 456 kts 321°
2026-04-26 19:08 8.12482 -55.16869 37960 ft 456 kts 321°
2026-04-26 19:09 8.17286 -55.20981 37955 ft 456 kts 321°
2026-04-26 19:09 8.22125 -55.25123 37958 ft 456 kts 321°
2026-04-26 19:10 8.26964 -55.29265 37959 ft 456 kts 321°
2026-04-26 19:10 8.31801 -55.33404 37952 ft 456 kts 321°
2026-04-26 19:11 8.36643 -55.37541 37954 ft 456 kts 321°
2026-04-26 19:11 8.41452 -55.41649 37955 ft 456 kts 321°
2026-04-26 19:12 8.46293 -55.45787 37949 ft 456 kts 322°
2026-04-26 19:12 8.51126 -55.49931 37958 ft 456 kts 321°
2026-04-26 19:13 8.55960 -55.54076 37961 ft 456 kts 321°
2026-04-26 19:13 8.60767 -55.58185 37967 ft 456 kts 321°
2026-04-26 19:14 8.65604 -55.62325 37966 ft 456 kts 320°
2026-04-26 19:14 8.70434 -55.66472 37973 ft 455 kts 321°
2026-04-26 19:15 8.75263 -55.70616 37966 ft 456 kts 321°
2026-04-26 19:15 8.80061 -55.74738 37969 ft 455 kts 320°
2026-04-26 19:16 8.84890 -55.78887 37969 ft 455 kts 320°
2026-04-26 19:16 8.89721 -55.83026 37973 ft 455 kts 320°
2026-04-26 19:17 8.94552 -55.87165 37977 ft 455 kts 320°
2026-04-26 19:17 8.99341 -55.91279 37970 ft 454 kts 320°
2026-04-26 19:18 9.04157 -55.95422 37978 ft 454 kts 320°
2026-04-26 19:18 9.08968 -55.99568 37970 ft 454 kts 320°
2026-04-26 19:19 9.13778 -56.03697 37972 ft 454 kts 320°
2026-04-26 19:19 9.18585 -56.07836 37964 ft 454 kts 320°
2026-04-26 19:20 9.23363 -56.11952 37976 ft 454 kts 320°
2026-04-26 19:20 9.28176 -56.16091 37968 ft 454 kts 320°
2026-04-26 19:21 9.32997 -56.20234 37974 ft 454 kts 320°
2026-04-26 19:21 9.37806 -56.24379 37971 ft 454 kts 320°
2026-04-26 19:22 9.42610 -56.28534 37965 ft 454 kts 320°
2026-04-26 19:22 9.47389 -56.32659 37964 ft 455 kts 318°
2026-04-26 19:23 9.52214 -56.36815 37973 ft 456 kts 319°
2026-04-26 19:23 9.57042 -56.40982 37971 ft 456 kts 319°
2026-04-26 19:24 9.61866 -56.45146 37978 ft 455 kts 319°
2026-04-26 19:24 9.69071 -56.51371 37967 ft 456 kts 319°
2026-04-26 19:25 9.73080 -56.54838 37971 ft 456 kts 319°
2026-04-26 19:25 9.78721 -56.59713 37969 ft 456 kts 318°
2026-04-26 19:26 9.83538 -56.63887 37980 ft 456 kts 318°
2026-04-26 19:26 9.88324 -56.68032 37982 ft 455 kts 318°
2026-04-26 19:27 9.93141 -56.72197 37980 ft 455 kts 318°
2026-04-26 19:27 9.97955 -56.76356 37980 ft 454 kts 319°
2026-04-26 19:28 10.02757 -56.80517 37982 ft 454 kts 319°
2026-04-26 19:28 10.07527 -56.84649 37977 ft 453 kts 318°
2026-04-26 19:29 10.12272 -56.88761 37968 ft 444 kts 318°
2026-04-26 19:29 10.16960 -56.92828 37969 ft 443 kts 318°
2026-04-26 19:30 10.21636 -56.96889 37965 ft 442 kts 318°
2026-04-26 19:30 10.25510 -57.00261 37963 ft 440 kts 317°
2026-04-26 19:31 10.30926 -57.04972 37957 ft 442 kts 318°
2026-04-26 19:31 10.35595 -57.09022 37964 ft 442 kts 318°
2026-04-26 19:32 10.40278 -57.13080 37977 ft 441 kts 318°
2026-04-26 19:32 10.44936 -57.17128 37987 ft 440 kts 319°
2026-04-26 19:33 10.49549 -57.21148 37988 ft 440 kts 318°
2026-04-26 19:33 10.54189 -57.25194 37985 ft 439 kts 318°
2026-04-26 19:34 10.58824 -57.29229 37982 ft 439 kts 318°
2026-04-26 19:34 10.63459 -57.33259 37981 ft 438 kts 318°
2026-04-26 19:35 10.68061 -57.37266 37986 ft 438 kts 318°
2026-04-26 19:35 10.72686 -57.41297 37987 ft 438 kts 318°
2026-04-26 19:36 10.75771 -57.43990 37989 ft 438 kts 318°
2026-04-26 19:36 10.81934 -57.49366 37990 ft 438 kts 318°
2026-04-26 19:37 10.86542 -57.53381 37991 ft 439 kts 317°
2026-04-26 19:37 10.91174 -57.57431 37972 ft 440 kts 318°
2026-04-26 19:38 10.95814 -57.61490 37972 ft 440 kts 317°
2026-04-26 19:38 11.00455 -57.65548 37972 ft 440 kts 317°
2026-04-26 19:39 11.05068 -57.69574 37974 ft 440 kts 317°
2026-04-26 19:39 11.09705 -57.73628 37973 ft 439 kts 317°
2026-04-26 19:40 11.14340 -57.77683 37986 ft 439 kts 317°
2026-04-26 19:40 11.18974 -57.81736 37981 ft 439 kts 317°
2026-04-26 19:41 11.23603 -57.85799 37978 ft 439 kts 317°
2026-04-26 19:41 11.26672 -57.88494 37982 ft 440 kts 317°
2026-04-26 19:42 11.32851 -57.93897 37977 ft 440 kts 318°
2026-04-26 19:42 11.37503 -57.97969 37961 ft 441 kts 317°
2026-04-26 19:43 11.42158 -58.02057 37961 ft 442 kts 317°
2026-04-26 19:43 11.46824 -58.06159 37979 ft 443 kts 318°
2026-04-26 19:44 11.51470 -58.10234 37966 ft 444 kts 317°
2026-04-26 19:44 11.56148 -58.14343 37985 ft 444 kts 317°
2026-04-26 19:45 11.60828 -58.18456 37986 ft 444 kts 317°
2026-04-26 19:45 11.65507 -58.22573 37991 ft 444 kts 317°
2026-04-26 19:46 11.70189 -58.26688 37999 ft 444 kts 317°
2026-04-26 19:46 11.74831 -58.30767 38004 ft 443 kts 317°
2026-04-26 19:47 11.77952 -58.33518 37994 ft 443 kts 317°
2026-04-26 19:47 11.84158 -58.38992 37999 ft 443 kts 317°
2026-04-26 19:48 11.88818 -58.43097 37985 ft 442 kts 316°
2026-04-26 19:48 11.93446 -58.47173 37982 ft 442 kts 316°
2026-04-26 19:49 11.98102 -58.51286 37992 ft 443 kts 316°
2026-04-26 19:49 12.02766 -58.55403 37992 ft 443 kts 316°
2026-04-26 19:50 12.07439 -58.59522 37997 ft 444 kts 316°
2026-04-26 19:50 12.12071 -58.63613 37994 ft 444 kts 316°
2026-04-26 19:51 12.16739 -58.67743 37988 ft 444 kts 316°
2026-04-26 19:51 12.21412 -58.71875 37990 ft 444 kts 316°
2026-04-26 19:52 12.26075 -58.75996 37995 ft 443 kts 316°
2026-04-26 19:52 12.30694 -58.80085 38003 ft 442 kts 316°
2026-04-26 19:53 12.35336 -58.84198 37997 ft 441 kts 316°
2026-04-26 19:53 12.39978 -58.88306 37997 ft 441 kts 316°
2026-04-26 19:54 12.44612 -58.92410 37999 ft 441 kts 316°
2026-04-26 19:54 12.49241 -58.96518 37992 ft 440 kts 316°
2026-04-26 19:55 12.53837 -59.00599 37991 ft 440 kts 316°
2026-04-26 19:55 12.58456 -59.04707 38005 ft 440 kts 316°
2026-04-26 19:56 12.63078 -59.08818 37984 ft 440 kts 316°
2026-04-26 19:56 12.67706 -59.12924 38005 ft 440 kts 316°
2026-04-26 19:57 12.72301 -59.17001 37991 ft 440 kts 316°
2026-04-26 19:57 12.76925 -59.21112 37998 ft 440 kts 316°
2026-04-26 19:58 12.81544 -59.25230 37983 ft 440 kts 316°
2026-04-26 19:58 12.86165 -59.29344 37993 ft 440 kts 316°
2026-04-26 19:59 12.90760 -59.33428 37978 ft 440 kts 316°
2026-04-26 19:59 12.95382 -59.37550 37973 ft 441 kts 316°
2026-04-26 20:00 13.00003 -59.41675 37970 ft 440 kts 316°
2026-04-26 20:00 13.04625 -59.45805 37971 ft 440 kts 316°
2026-04-26 20:01 13.09182 -59.49941 37973 ft 440 kts 314°
2026-04-26 20:01 13.13562 -59.54301 37972 ft 439 kts 312°
2026-04-26 20:02 13.17861 -59.58759 37971 ft 439 kts 312°
2026-04-26 20:02 13.20749 -59.61725 37977 ft 439 kts 312°
2026-04-26 20:03 13.26539 -59.67559 37984 ft 438 kts 313°
2026-04-26 20:03 13.30865 -59.71907 37999 ft 438 kts 313°
2026-04-26 20:04 13.35205 -59.76283 37901 ft 437 kts 313°
2026-04-26 20:04 13.37380 -59.78477 37630 ft 436 kts 313°
2026-04-26 20:04 13.39544 -59.80657 37372 ft 436 kts 313°
2026-04-26 20:05 13.41711 -59.82844 37075 ft 437 kts 313°
2026-04-26 20:05 13.43879 -59.85035 36419 ft 437 kts 313°
2026-04-26 20:05 13.46052 -59.87235 35646 ft 440 kts 313°
2026-04-26 20:05 13.48202 -59.89411 35059 ft 439 kts 313°
2026-04-26 20:06 13.50362 -59.91593 34552 ft 436 kts 313°
2026-04-26 20:06 13.52521 -59.93771 34010 ft 434 kts 312°
2026-04-26 20:06 13.54672 -59.95941 33427 ft 432 kts 312°
2026-04-26 20:06 13.56807 -59.98099 32902 ft 429 kts 312°
2026-04-26 20:07 13.58927 -60.00244 32375 ft 426 kts 312°
2026-04-26 20:07 13.61034 -60.02377 31842 ft 424 kts 312°
2026-04-26 20:07 13.63131 -60.04502 31317 ft 422 kts 312°
2026-04-26 20:07 13.65217 -60.06618 30807 ft 420 kts 312°
2026-04-26 20:08 13.67293 -60.08726 30304 ft 419 kts 312°
2026-04-26 20:08 13.69335 -60.10796 29763 ft 417 kts 312°
2026-04-26 20:08 13.71394 -60.12880 29256 ft 413 kts 312°
2026-04-26 20:08 13.73434 -60.14943 28778 ft 409 kts 312°
2026-04-26 20:09 13.75455 -60.16990 28300 ft 406 kts 312°
2026-04-26 20:09 13.77457 -60.19022 27849 ft 402 kts 312°
2026-04-26 20:09 13.79436 -60.21035 27386 ft 400 kts 312°
2026-04-26 20:09 13.81406 -60.23038 26934 ft 397 kts 312°
2026-04-26 20:10 13.83365 -60.25027 26486 ft 394 kts 312°
2026-04-26 20:10 13.84656 -60.26338 26181 ft 393 kts 312°
2026-04-26 20:10 13.86596 -60.28307 25730 ft 391 kts 313°
2026-04-26 20:10 13.89152 -60.30898 25116 ft 389 kts 313°
2026-04-26 20:11 13.91073 -60.32849 24633 ft 387 kts 313°
2026-04-26 20:11 13.92986 -60.34792 24147 ft 387 kts 313°
2026-04-26 20:11 13.94898 -60.36738 23655 ft 386 kts 313°
2026-04-26 20:12 13.98072 -60.39970 22768 ft 384 kts 313°
2026-04-26 20:12 13.99969 -60.41900 22276 ft 382 kts 313°
2026-04-26 20:12 14.01855 -60.43820 21799 ft 380 kts 313°
2026-04-26 20:12 14.03723 -60.45741 21302 ft 378 kts 310°
2026-04-26 20:13 14.05695 -60.48653 20681 ft 372 kts 296°
2026-04-26 20:13 14.06522 -60.50234 20365 ft 371 kts 296°
2026-04-26 20:13 14.07743 -60.52557 19899 ft 370 kts 296°
2026-04-26 20:13 14.08953 -60.54851 19445 ft 369 kts 296°
2026-04-26 20:14 14.10178 -60.57168 18988 ft 368 kts 296°
2026-04-26 20:14 14.11402 -60.59481 18534 ft 367 kts 296°
2026-04-26 20:14 14.12623 -60.61790 18047 ft 367 kts 296°
2026-04-26 20:14 14.13841 -60.64093 17580 ft 365 kts 296°
2026-04-26 20:15 14.15445 -60.67128 16988 ft 362 kts 296°
2026-04-26 20:15 14.16256 -60.68663 16696 ft 360 kts 296°
2026-04-26 20:15 14.17450 -60.70926 16255 ft 358 kts 296°
2026-04-26 20:15 14.18621 -60.73147 15838 ft 357 kts 296°
2026-04-26 20:16 14.19801 -60.75391 15419 ft 356 kts 296°
2026-04-26 20:16 14.20978 -60.77627 14989 ft 354 kts 296°
2026-04-26 20:16 14.22153 -60.79854 14571 ft 353 kts 296°
2026-04-26 20:16 14.23326 -60.82072 14149 ft 352 kts 296°
2026-04-26 20:17 14.24490 -60.84283 13717 ft 350 kts 296°
2026-04-26 20:17 14.25645 -60.86479 13270 ft 348 kts 296°
2026-04-26 20:17 14.26792 -60.88666 12848 ft 345 kts 296°
2026-04-26 20:17 14.27917 -60.90809 12441 ft 342 kts 296°
2026-04-26 20:18 14.29043 -60.92953 12016 ft 340 kts 296°
2026-04-26 20:18 14.30166 -60.95088 11598 ft 337 kts 296°
2026-04-26 20:18 14.31279 -60.97202 11274 ft 332 kts 296°
2026-04-26 20:18 14.32361 -60.99251 11151 ft 319 kts 296°
2026-04-26 20:19 14.33408 -61.01240 10908 ft 313 kts 296°
2026-04-26 20:19 14.34434 -61.03195 10425 ft 307 kts 296°
2026-04-26 20:19 14.35445 -61.05125 9773 ft 305 kts 296°
2026-04-26 20:19 14.36440 -61.07019 9130 ft 300 kts 297°
2026-04-26 20:20 14.37414 -61.08870 8698 ft 289 kts 297°
2026-04-26 20:20 14.38354 -61.10659 8309 ft 281 kts 297°
2026-04-26 20:20 14.39284 -61.12432 7908 ft 281 kts 297°
2026-04-26 20:20 14.40216 -61.14210 7510 ft 281 kts 297°
2026-04-26 20:21 14.41147 -61.15986 7103 ft 282 kts 297°
2026-04-26 20:21 14.42079 -61.17766 6690 ft 282 kts 297°
2026-04-26 20:21 14.43011 -61.19548 6262 ft 283 kts 297°
2026-04-26 20:21 14.43947 -61.21338 5818 ft 283 kts 298°
2026-04-26 20:22 14.45082 -61.22959 5387 ft 283 kts 314°
2026-04-26 20:22 14.46609 -61.24232 4904 ft 284 kts 329°
2026-04-26 20:22 14.48409 -61.25084 4405 ft 285 kts 339°
2026-04-26 20:22 14.50208 -61.25812 4305 ft 269 kts 341°
2026-04-26 20:23 14.51977 -61.26129 4210 ft 250 kts
2026-04-26 20:23 14.53569 -61.25625 4095 ft 233 kts 34°
2026-04-26 20:23 14.54713 -61.24530 3975 ft 221 kts 59°
2026-04-26 20:23 14.55292 -61.23095 3860 ft 215 kts 83°
2026-04-26 20:24 14.55493 -61.21581 3737 ft 210 kts 84°
2026-04-26 20:24 14.55710 -61.20106 3429 ft 211 kts 83°
2026-04-26 20:24 14.55959 -61.18617 3151 ft 211 kts 83°
2026-04-26 20:24 14.56215 -61.17127 2869 ft 210 kts 83°
2026-04-26 20:25 14.56470 -61.15645 2602 ft 209 kts 83°
2026-04-26 20:25 14.56638 -61.14669 2425 ft 209 kts 82°
2026-04-26 20:25 14.56979 -61.12692 2063 ft 207 kts 82°
2026-04-26 20:25 14.57229 -61.11235 1790 ft 206 kts 81°
2026-04-26 20:26 14.57475 -61.09808 1535 ft 205 kts 82°
2026-04-26 20:26 14.57722 -61.08372 1269 ft 199 kts 82°
2026-04-26 20:26 14.57958 -61.07005 1044 ft 187 kts 82°
2026-04-26 20:26 14.58178 -61.05726 789 ft 175 kts 81°
2026-04-26 20:27 14.58377 -61.04567 595 ft 152 kts 81°
2026-04-26 20:27 14.58560 -61.03528 402 ft 146 kts 82°
2026-04-26 20:27 14.58733 -61.02507 224 ft 144 kts 81°
2026-04-26 20:27 14.58906 -61.01497 46 ft 137 kts 80°
2026-04-26 20:28 14.59060 -61.00636 17 ft 110 kts 84°
2026-04-26 20:28 14.59154 -61.00033 17 ft 60 kts 78°
2026-04-26 20:28 14.59203 -60.99755 20 ft 30 kts 80°
2026-04-26 20:28 14.59273 -60.99663 22 ft 16 kts 360°
2026-04-26 20:29 14.59329 -60.99672 23 ft 5 kts 349°
2026-04-26 20:29 14.59335 -60.99673 22 ft 0 kts 349°
2026-04-26 20:29 14.59337 -60.99673 21 ft 3 kts 349°
2026-04-26 20:29 14.59377 -60.99682 20 ft 8 kts 339°
2026-04-26 20:30 14.59403 -60.99741 19 ft 9 kts 264°
2026-04-26 20:30 14.59391 -60.99805 20 ft 9 kts 260°
2026-04-26 20:30 14.59378 -60.99887 21 ft 13 kts 260°
2026-04-26 20:30 14.59363 -60.99973 20 ft 6 kts 270°
2026-04-26 20:31 14.59392 -60.99977 19 ft 5 kts
2026-04-26 20:31 14.59427 -60.99972 17 ft 5 kts
2026-04-26 20:31 14.59442 -60.99970 20 ft 0 kts
2026-04-26 20:31 14.59446 -60.99970 19 ft 2 kts
2026-04-26 20:32 14.59447 -60.99970 19 ft 0 kts